Timeline UpdatesTrip UpdatesNews PostsPvt PostsTravel TipsAdmin PostsConv PostsFollowed PostsChat RequestsBlog PostsPNR Posts

Disclaimer
Search
 
 
Mon Sep 22, 2014 19:46:29 ISTHomeTrainsΣChainsAtlasPNRForumGalleryNewsFAQTripsMembersLoginFeedback
No Recent News for this Train
Other Trains in the News **new
Latest...
Permanent Augmentation of 1 3A coach wef 10/4/14
Fri Apr 04, 2014 (07:10PM)
⇐ Return Journey: Train# 11058

11057/Mumbai LTT - Amritsar (Pathankot) Express

Time-Table HAS CHANGED.
Sep 04 (10:14PM)
Change Departure Station:
Change Arrival Station:
Post a Train Travel TipPost a Train Travel Tip **new
Post a Comment/Question/Picture/VideoPost a Comment/Question/Picture/Video
Pantry/Catering
✕ NO Pantry Car
✓ Catering Avbl
RSA - Rake Sharing
No RSA
Rake/Coach Composition
LOCO-SLR-GEN-GEN-MILITARY-A1-B3-B2-B1-S8-S7-S6-S5-S4-S3-S2-S1-RMS-LDS-[B4-S9-S10-SLR]. ; [B4-S9-S10-SLR] -> Is the Slip portion for Dhule and bifurcates from the main train at Chalisgaon.
Loco
LTT-UMB --> GZB WAP-1/4/5/7 UMB-ASR --> TKD WDM3A/WDP3A
News    PNR    Forum    Time-Table    Availability    Fare Chart    Map    Arr/Dep History    Trips    Gallery    ΣChains    X/O    Timeline    
Travel Time: 13h 7m    31 halts    Distance: 531 km    Avg Speed: 40 km/hr
Type: Mail/Express
Zone: CR/Central
Departs @ 03:23 (Avg 49m late)
Platform# 2
SMTWTFS
Faridabad/FDB 
Arrives @ 16:30 (Avg 30m late)
Platform# 4
SMTWTFS
Amritsar Junction/ASR 

31 halts. 91 intermediate Stations between Faridabad and Amritsar Junction

Show ALL intermediate Stations  Show Old Time-Table

#CodeStation NameX/OArrivesAvgDepartsAvgHaltPFDay#KmSpeedElevZoneAddress
1LTTMumbai Lokmanya Tilak Terminus (5)  -23:45+331-1499.0437mCRMumbai - 400089, Maharashtra
2TNAThane (10)  00:07 00:08+700:10+63 2m72-1482.56110mCRThane (West) 400602, Maharashtra
3KYNKalyan Junction (8)  00:30+1500:35 00:33+175 3m42-1462.36210mCRKalyan 421301, Maharashtra
4KSRAKasara (4)XO  01:43 01:38+2001:45 01:40+262m12-1394.925290mCRDist. Thane 421602, Maharashtra
5IGPIgatpuri (4)X02:15+1902:20+255m22-1380.563589mCRIgatpuri 422403, Maharashtra
6DVLDevlali (3)X  03:08 03:03+2203:10 03:05+232m12-1335.669561mCRDist. Nashik 422401, Maharashtra
7NKNasik Road (3)XO  03:15 03:10+2603:20 03:15+245m12-1329.893563mCRNashik 422101, Maharashtra
8MMRManmad Junction (6)X  04:05 04:02+3104:10 04:05+305 3m22-1257.176580mCRManmad 423104, Maharashtra
9CSNChalisgaon Junction (3)X  05:03 04:58+2905:05 05:00+322m--2-1189.596352mCRChalisgaon 424101, Maharashtra
10PCPachora Junction (4)  05:33 05:28+3605:35 05:30+362m--2-1144.787264mCRPachora 424201, Maharashtra
11JLJalgaon Junction (4)X  06:08 06:03+3806:10 06:05+402m32-1097.058213mCRJalgaon 425001, Maharashtra
12BSLBhusaval Junction (8)X  06:40 06:30+3606:50 06:45+3810 15m62-1072.951208mCRBhusaval 425201, Maharashtra
13SAVSavda (2)XO  07:03+4207:05+422m--2-1057.4105220mCRSavda, Maharashtra
14NBNimbhora (2)XO  07:13 07:10+4407:15 07:12+442m--2-1048.776229mCRJalgaon, Maharashtra
15RVRaver (2)X  07:23 07:20+4607:25 07:22+462m--2-1038.676242mCRJalgaon, Maharashtra
16BAUBurhanpur (2)  07:43 07:38+4707:45 07:40+472m22-1018.487269mCRBurhanpur, Madhya Pradesh
17NPNRNepanagar (2)X  08:03 07:58+4908:05 08:00+492m--2-992.230289mCRState Highway 27, Madhya Pradesh
18KNWKhandwa Junction (5)X  09:35 09:25+709:40 09:30+115m22-949.541310mCRKhandwa, Madhya Pradesh
19TLVTalvadiya (2)XO  09:53+1109:55+142m--2-933.899308mWCRKhandwa, Madhya Pradesh
20CAERChhanera (2)XO  10:13+2010:15+232m--2-904.188283mWCRChhanera, Madhya Pradesh
21KKNKhirkiya (2)X  10:36+2410:38+322m22-873.473281mWCRSH 15, Madhya Pradesh
22HDHarda (3)  11:04+3011:06+302m--2-841.961289mWCRHarda, Madhya Pradesh
23TBNTimarni (2)  11:20+2911:22+382m--2-827.840308mWCRTimarni, Madhya Pradesh
24BPFBanapura (2)  12:04+2112:06+232m--2-799.551314mWCRBanapura, Madhya Pradesh
25ETItarsi Junction (7)X  12:50 12:45+1712:55 12:50+245m12-766.168329mWCRItarsi 461111, Madhya Pradesh
26HBDHoshangabad (2)X  13:13 13:06+2813:15 13:08+282m--2-748.042308mWCRHoshangabad, Madhya Pradesh
27BNIBudni (2)  13:25 13:18+3113:27 13:20+332m--2-741.049311mWCRSehore 466445 Madhya pradesh, Madhya Pradesh
28ODGObaidulla GanjO  14:03 13:58+4114:05 14:00+422m22-710.258 WCRObaidullaganj Raisen Dist., Madhya Pradesh
29MDDPMandi Dip (1)  14:19 14:14+4214:21 14:16+422m12-696.757 WCRMandideep, Madhya Pradesh
30HBJBhopal HabibGanj (5)X  14:38 14:33+4314:40 14:35+452m12-680.615496mWCRHabibGanj, Madhya Pradesh
31BPLBhopal Junction (6)  15:05 15:00+3515:10 15:05+415m22-674.474497mWCRBhopal, Madhya Pradesh
32SCISanchi (2)XO  15:41+4815:43+482m22-630.243428mWCRRaisen, Madhya Pradesh
33BHSVidisha (3)  15:56+4615:58+462m12-620.870 WCRVidisha, Madhya Pradesh
34GLGGulabhGanj (3)  16:16+4816:18+482m12-599.892 WCRVidisha, Madhya Pradesh
35BAQGanj Basoda (4)X  16:30+5116:32+512m12-581.571 WCRVidisha, Madhya Pradesh
36MABAMandi Bamora (3)XO  16:56+5116:58+502m12-553.025413mWCRState Highway 14, Madhya Pradesh
37BINABina Junction (5)X  17:40+2717:45+285m32-535.858414mWCRJn Pt - KATNI/GUNA/ BPL/JHS, Madhya Pradesh
38DUADhaura (3)X  18:21+3218:23+322m--2-501.258407mNCRDhaura Tanda, Madhya Pradesh
39JLNJakhalaun (3)  18:36 18:35+2918:37+311 2m12-489.672394mNCRLalitpur(05176-272220), Uttar Pradesh
40LARLalitpur (3)  18:51+3118:53+322m32-472.986373mNCRLalitpur, Uttar Pradesh
41TBTTalbahat (4)X  19:21+3519:23+352m32-433.059314mNCRKhaniyadhana Station Rd, Madhya Pradesh
42BZYBasai (3)  19:36+3519:38+352m22-420.260287mNCR07522289600(Gate ManMob. - 9452701575), Madhya Pradesh
43BABBabina (3)X  19:50+3619:52+372m12-408.140285mNCRBabina, Uttar Pradesh
44JHSJhansi Junction (7)X  20:30+3020:38+348m52-382.668259mNCRJhansi, Uttar Pradesh
45DAADatia (2)X  21:00+3921:02+392m--2-357.563264mNCRDatia, Madhya Pradesh
46SORSonagir (2)X  21:13+3921:15+402m--2-346.071211mNCRDatia, Madhya Pradesh
47DBADabra (3)X  21:31+4321:33+432m--2-327.269 NCRDabra(District-Gwalior), Madhya Pradesh
48GWLGwalior Junction (4)X  22:10+4622:18+448m22-284.893214mNCRGwalior, Madhya Pradesh
49MRAMorena (3)X  22:43+5322:45+532m22-246.370176mNCRMorena, Madhya Pradesh
50DHODholpur Junction (3)X  23:08+4323:10+442m12-219.454177mNCRDholpur, Rajasthan
51AGCAgra Cantt. (6)X  00:08+5100:18 00:16+5410 8m23-166.927174mNCRAgra, Uttar Pradesh
52RKMRaja Ki Mandi (4)  00:25+1:0000:27+1:002m13-162.869170mNCRAgra, Uttar Pradesh
53MTJMathura Junction (10)  01:10+1:0201:20 01:15+1:0010 5m33-113.275179mNCRMathura, Uttar Pradesh
54KSVKosi Kalan (3)  01:48+1:0501:50+1:052m13-71.744189mNCRKosi Kalan, Uttar Pradesh
55PWLPalwal (8)  02:48+4102:50+452m--3-29.271200mNRPalwal, Haryana
56BVHBallabgarh (5)  03:08+4803:10+482m33-8.144203mNRFaridabad, Haryana
57FDBFaridabad (4)»  03:21+4903:23+492m230.052206mNRold Faridabad, Haryana
58NZMDelhi Hazrat Nizamuddin (7)O  03:47+5403:49+542m3320.817209mNRNew Delhi 110013, Delhi NCT
59NDLSNew Delhi (16)  04:10 04:15+5704:30+5620 15m2328.215215mNRNew Delhi, Delhi NCT
60SZMDelhi Sabzi Mandi (2)X  04:46+5804:48+582m--332.349220mNRGulabi Bagh, Delhi NCT
61BHDBadli (2)XO  05:01+1:0305:03+1:032m--342.951217mNRRohini, Delhi NCT
62NURNarela (2)X  05:17 05:18+1:0905:19 05:20+1:122m--355.637222mNRNarela, Delhi NCT
63SNPSonipat (3)X  05:46 05:48+1:0105:48 05:50+1:042m--372.660225mNRSonipat, Haryana
64GNUGanaur  06:00 06:06+1:1206:02 06:08+1:122m--388.557222mNRGanaur, Haryana
65SMKSamalkha (3)  06:21+1:0506:23+1:082m--3100.854229mNRSamalkha, Haryana
66PNPPanipat Junction (5)  06:38 06:42+1:0706:40 06:44+1:082m33117.864235mNRPanipat, Haryana
67GRAGharaunda (2)  07:00+1:0407:02+1:082m--3134.766244mNRGharaunda, Haryana
68KUNKarnal (3)X  07:18+1:0807:20+1:082m23152.252253mNRKarnal, Haryana
69TRRTaraori (2)  07:34+1:0707:36 07:35+1:072 1m--3164.326255mNRTaraori, Haryana
70NLKRNilokheriXO  07:44+1:0407:46 07:45+1:042 1m--3168.234254mNRNilokheri, Haryana
71KKDEKurukshetra Junction (3)  08:20 08:15+4308:22 08:17+442m13185.378260mNRKurukshetra, Haryana
72SHDMShahbad Markanda (2)X  08:43 08:34+5308:45 08:36+552m23207.527267mNRShahabad Markanda, Haryana
73UMBAmbala Cantt. Junction (7)X09:20+4409:40+5220m63227.438278mNRAmbala 133001, Haryana
74UBCAmbala City (3)X  09:52+5609:54+572m33235.082273mNRNH-1, Haryana
75RPJRajpura Junction (3)  10:11 10:09+5810:13 10:11+582m13255.555272mNRNH-1, Punjab
76PTAPatiala (4)X  10:35 10:38+1:0810:40+1:085 2m13280.352256mNRPatiala, Punjab
77NBANabha (1)  11:08 11:10+1:0411:10 11:12+1:052m13306.149250mNRNabha, Punjab
78DUIDhuri Junction (4)  11:45+5811:50+585m--3333.172248mNRDhuri, Punjab
79METMalerkotla (2)X  12:07 12:04+1:0112:09 12:06+1:022m13349.928248mNRMalerkotla., Punjab
80AHHAhmadgarh (1)  12:48+4212:50+422m13369.744256mNRAhmedgarh, Punjab
81LDHLudhiana Junction (7)X  13:25+5113:35+5510m33395.134246mNRLudhiana 141001, Punjab
82PHRPhillaur Junction (3)X  13:58+5514:00+542m23408.264246mNRPhillaur, Punjab
83GRYGoraya (2)X  14:12+5414:14+542m23421.054240mNRGoraya, Punjab
84PGWPhagwara Junction (3)X  14:25+4914:27+482m23430.870245mNRPhagwara, Punjab
85JRCJalandhar Cantt. Junction (3)X  14:41+5414:43+542m13447.124239mNRNear Rama Mandi, Punjab
86JUCJalandhar City Junction (5)  14:55+4815:00+505m13451.956239mNRJalandhar 144001, Punjab
87BEASBeas Junction (2)X  15:39+4115:41+412m13488.080238mNRBeas, Punjab
88JNLJandiala (2)X  15:59+4116:01+412m13511.940238mNRJandiala, Punjab
89ASRAmritsar Junction (5)•  16:30+30-43531.1-233mNRAmritsar 143002, Punjab
Scroll to Top
Scroll to Bottom